Location: Taupo
(38.6830°S, 176.0830°E)
Time: 08:08:34
(UTC+13:00)

ISS - Pass Details

Date: 28 January 2019
Orbit: 403 x 411 km, 51.6° (Epoch: 21 February)

Event Time Altitude Azimuth Distance (km) Brightness Sun altitude
Exits shadow 05:31:21 10° 333° (NNW) 1,458 -1.5 -9.5°
Maximum altitude 05:34:28 41° 44° (NE) 610 -2.8 -9.0°
Drops below altitude 10° 05:37:38 10° 116° (ESE) 1,491 0.7 -8.4°
Sets 05:39:48 0° 123° (ESE) 2,358 2.7 -8.1°
